UNISAT 2

Satellite information

Favourite Embed

Satellite Type and Status

PAYLOADIN ORBIT

Key statistics

Satellite UNISAT 2 at a glance.

Uptime

8298

Days in orbit

Revolutions

≈ 14.8

Per day

Orbit

LEO

Low Earth Orbit

Inclination

64.6

Latest

Satellite identification and parameters

Extended collection of information and parameters for UNISAT 2.

Object identification

Identified? True

Debris? False

Object name: UNISAT 2

International designator: 2002-058D

Object number (NORAD): 27608

Object ID (CCSDS): 27608

Country: ITALY (IT)

Current information (Y/N): Y

RCS size: MEDIUM

Orbital parameters

Period: 97.077 minutes

Inclination: 64.554 deg

SMA: 6996.888 km

Apoapsis: 659.636 km

Periapsis: 577.869 km

RAAN: 175.9788 deg

Eccentricy: 0.0058431

Argument of periapsis: 299.2851 deg

Mean anomaly: 60.2422 deg

Mean motion: 14.83356031 rev/day

Mean motion (dot): 0.00001651 rev/day2

B* drag term: 0.00021314499 1/REarth

Two-line elements (TLE)

Creation date: Sept. 8, 2025, 3:16 a.m.

Reference frame: TEME

Reference center: EARTH

Epoch: Sept. 7, 2025, 9:35 p.m. UTC

TLE line 0: 0 UNISAT 2

TLE line 1: 1 27608U 02058D 25250.89955553 .00001651 00000-0 21314-3 0 9998

TLE line 2: 2 27608 64.5540 175.9788 0058431 299.2851 60.2422 14.83356031224908

Live tracking on map

Real-time ground track for satellite UNISAT 2.

In-orbit conjunctions

There are no conjunctions computed for UNISAT 2, at the moment. Check back to stay up to date, as we update our databases every day.

Go to all conjunctions

Associated space launch

Technology satellite for OHB-System, Germany.

UNISAT 2 was lifted into orbit during the mission ‘Dnepr | AATiS-OSCAR-49’, on board a Dnepr space rocket.

The launch took place on Dec. 20, 2002, 5 p.m. from 109/95.

For more information about the launch, click the button.

Launch to space Dnepr | AATiS-OSCAR-49
Dnepr | AATiS-OSCAR-49

Agency: N/A

Status: Launch Successful

Launch date: Dec. 20, 2002, 5 p.m. UTC

Rocket: Dnepr

Launch pad: 109/95

Location: Baikonur Cosmodrome, Republic of Kazakhstan

...

Latest news about this satellite

There are no fresh news available about this satellite. Check back as we update our databases every day.


Newsletter sign-up

Weekly statistics, charts and insights to help you stay on top of the space industry.